Time,TemperatureF,DewpointF,PressureIn,WindDirection,WindDirectionDegrees,WindSpeedMPH,WindSpeedGustMPH,Humidity,HourlyPrecipIn,Conditions,Clouds,dailyrainin,SoftwareType,DateUTC
2013-10-02 00:04:00,48.4,-99.9,0.00,SSE,167,0.0,0.0,-99,0.00,NA,NA,-99.99,WeatherLink_script,2013-10-02 04:04:00,
2013-10-02 00:09:00,48.2,-99.9,0.00,SSW,201,0.0,0.0,-99,0.00,NA,NA,-99.99,WeatherLink_script,2013-10-02 04:09:00,
2013-10-02 00:14:00,48.7,-99.9,0.00,SSW,202,0.0,0.0,-99,0.00,NA,NA,-99.99,WeatherLink_script,2013-10-02 04:14:00,
2013-10-02 00:19:00,48.8,-99.9,0.00,South,179,0.0,0.0,-99,0.00,NA,NA,-99.99,WeatherLink_script,2013-10-02 04:19:00,
2013-10-02 00:24:00,49.0,-99.9,0.00,South,169,0.0,0.0,-99,0.00,NA,NA,-99.99,WeatherLink_script,2013-10-02 04:24:00,
2013-10-02 00:29:00,48.7,-99.9,0.00,North,356,0.0,0.0,-99,0.00,NA,NA,-99.99,WeatherLink_script,2013-10-02 04:29:00,
2013-10-02 00:34:00,48.1,-99.9,0.00,WNW,287,0.0,0.0,-99,0.00,NA,NA,-99.99,WeatherLink_script,2013-10-02 04:34:00,
2013-10-02 00:39:00,47.9,-99.9,0.00,NNE,16,0.0,0.0,-99,0.00,NA,NA,-99.99,WeatherLink_script,2013-10-02 04:39:00,
2013-10-02 00:44:00,48.0,-99.9,0.00,East,83,0.0,0.0,-99,0.00,NA,NA,-99.99,WeatherLink_script,2013-10-02 04:44:00,
2013-10-02 00:49:00,48.3,-99.9,0.00,NNE,27,0.0,0.0,-99,0.00,NA,NA,-99.99,WeatherLink_script,2013-10-02 04:49:00,
2013-10-02 00:54:00,48.7,-99.9,0.00,NNW,345,0.0,0.0,-99,0.00,NA,NA,-99.99,WeatherLink_script,2013-10-02 04:54:00,
2013-10-02 00:59:00,48.8,-99.9,0.00,North,3,0.0,0.0,-99,0.00,NA,NA,-99.99,WeatherLink_script,2013-10-02 04:59:00,
2013-10-02 01:04:00,48.8,-99.9,0.00,South,174,0.0,0.0,-99,0.00,NA,NA,-99.99,WeatherLink_script,2013-10-02 05:04:00,
2013-10-02 01:09:00,48.8,-99.9,0.00,ENE,64,0.0,0.0,-99,0.00,NA,NA,-99.99,WeatherLink_script,2013-10-02 05:09:00,
2013-10-02 01:14:00,48.9,-99.9,0.00,NE,50,0.0,0.0,-99,0.00,NA,NA,-99.99,WeatherLink_script,2013-10-02 05:14:00,
2013-10-02 01:19:00,49.1,-99.9,0.00,NW,320,0.0,0.0,-99,0.00,NA,NA,-99.99,WeatherLink_script,2013-10-02 05:19:00,
2013-10-02 01:24:00,49.1,-99.9,0.00,South,179,0.0,0.0,-99,0.00,NA,NA,-99.99,WeatherLink_script,2013-10-02 05:24:00,
2013-10-02 01:29:00,49.2,-99.9,0.00,NE,54,0.0,0.0,-99,0.00,NA,NA,-99.99,WeatherLink_script,2013-10-02 05:29:00,
2013-10-02 01:34:00,49.3,-99.9,0.00,NNE,19,0.0,0.0,-99,0.00,NA,NA,-99.99,WeatherLink_script,2013-10-02 05:34:00,
2013-10-02 01:39:00,49.4,-99.9,0.00,NNE,12,0.0,0.0,-99,0.00,NA,NA,-99.99,WeatherLink_script,2013-10-02 05:39:00,
2013-10-02 01:44:00,49.5,-99.9,0.00,South,180,0.0,0.0,-99,0.00,NA,NA,-99.99,WeatherLink_script,2013-10-02 05:44:00,
2013-10-02 01:49:00,49.6,-99.9,0.00,North,352,0.0,0.0,-99,0.00,NA,NA,-99.99,WeatherLink_script,2013-10-02 05:49:00,
2013-10-02 01:54:00,49.7,-99.9,0.00,NNE,16,0.0,0.0,-99,0.00,NA,NA,-99.99,WeatherLink_script,2013-10-02 05:54:00,
2013-10-02 01:59:00,49.8,-99.9,0.00,ESE,111,0.0,0.0,-99,0.00,NA,NA,-99.99,WeatherLink_script,2013-10-02 05:59:00,
2013-10-02 02:04:00,49.9,-99.9,0.00,South,175,0.0,0.0,-99,0.00,NA,NA,-99.99,WeatherLink_script,2013-10-02 06:04:00,
2013-10-02 02:09:00,49.8,-99.9,0.00,East,80,0.0,0.0,-99,0.00,NA,NA,-99.99,WeatherLink_script,2013-10-02 06:09:00,
2013-10-02 02:14:00,49.8,-99.9,0.00,NE,46,0.0,0.0,-99,0.00,NA,NA,-99.99,WeatherLink_script,2013-10-02 06:14:00,
2013-10-02 02:19:00,49.8,-99.9,0.00,South,179,0.0,0.0,-99,0.00,NA,NA,-99.99,WeatherLink_script,2013-10-02 06:19:00,
2013-10-02 02:24:00,49.9,-99.9,0.00,South,178,0.0,0.0,-99,0.00,NA,NA,-99.99,WeatherLink_script,2013-10-02 06:24:00,
2013-10-02 02:29:00,49.9,-99.9,0.00,SSE,157,0.0,0.0,-99,0.00,NA,NA,-99.99,WeatherLink_script,2013-10-02 06:29:00,
2013-10-02 02:34:00,50.0,-99.9,0.00,South,180,0.0,0.0,-99,0.00,NA,NA,-99.99,WeatherLink_script,2013-10-02 06:34:00,
2013-10-02 02:39:00,49.9,-99.9,0.00,South,183,0.0,0.0,-99,0.00,NA,NA,-99.99,WeatherLink_script,2013-10-02 06:39:00,
2013-10-02 02:44:00,49.9,-99.9,0.00,South,173,0.0,0.0,-99,0.00,NA,NA,-99.99,WeatherLink_script,2013-10-02 06:44:00,
2013-10-02 02:49:00,50.0,-99.9,0.00,South,179,0.0,0.0,-99,0.00,NA,NA,-99.99,WeatherLink_script,2013-10-02 06:49:00,
2013-10-02 02:54:00,50.0,-99.9,0.00,SSW,199,0.0,0.0,-99,0.00,NA,NA,-99.99,WeatherLink_script,2013-10-02 06:54:00,
2013-10-02 02:59:00,50.1,-99.9,0.00,South,172,0.0,0.0,-99,0.00,NA,NA,-99.99,WeatherLink_script,2013-10-02 06:59:00,
2013-10-02 03:04:00,50.0,-99.9,0.00,South,185,0.0,0.0,-99,0.00,NA,NA,-99.99,WeatherLink_script,2013-10-02 07:04:00,
2013-10-02 03:09:00,49.9,-99.9,0.00,South,183,0.0,0.0,-99,0.00,NA,NA,-99.99,WeatherLink_script,2013-10-02 07:09:00,
2013-10-02 03:14:00,49.8,-99.9,0.00,South,181,0.0,0.0,-99,0.00,NA,NA,-99.99,WeatherLink_script,2013-10-02 07:14:00,
2013-10-02 03:19:00,49.8,-99.9,0.00,South,175,0.0,0.0,-99,0.00,NA,NA,-99.99,WeatherLink_script,2013-10-02 07:19:00,
2013-10-02 03:24:00,49.6,-99.9,0.00,South,178,0.0,0.0,-99,0.00,NA,NA,-99.99,WeatherLink_script,2013-10-02 07:24:00,
2013-10-02 03:29:00,49.6,-99.9,0.00,NW,322,0.0,0.0,-99,0.00,NA,NA,-99.99,WeatherLink_script,2013-10-02 07:29:00,
2013-10-02 03:34:00,50.0,-99.9,0.00,NNW,345,0.0,0.0,-99,0.00,NA,NA,-99.99,WeatherLink_script,2013-10-02 07:34:00,
2013-10-02 03:39:00,49.7,-99.9,0.00,North,4,0.0,0.0,-99,0.00,NA,NA,-99.99,WeatherLink_script,2013-10-02 07:39:00,
2013-10-02 03:44:00,49.6,-99.9,0.00,North,354,0.0,0.0,-99,0.00,NA,NA,-99.99,WeatherLink_script,2013-10-02 07:44:00,
2013-10-02 03:49:00,49.4,-99.9,0.00,North,356,0.0,1.0,-99,0.00,NA,NA,-99.99,WeatherLink_script,2013-10-02 07:49:00,
2013-10-02 03:54:00,49.3,-99.9,0.00,North,8,0.0,1.0,-99,0.00,NA,NA,-99.99,WeatherLink_script,2013-10-02 07:54:00,
2013-10-02 03:59:00,49.2,-99.9,0.00,NNE,12,0.0,1.0,-99,0.00,NA,NA,-99.99,WeatherLink_script,2013-10-02 07:59:00,
2013-10-02 04:04:00,49.1,-99.9,0.00,North,356,0.1,0.0,-99,0.00,NA,NA,-99.99,WeatherLink_script,2013-10-02 08:04:00,
2013-10-02 04:09:00,48.7,-99.9,0.00,North,355,0.2,1.0,-99,0.00,NA,NA,-99.99,WeatherLink_script,2013-10-02 08:09:00,
2013-10-02 04:14:00,48.8,-99.9,0.00,North,358,0.0,1.0,-99,0.00,NA,NA,-99.99,WeatherLink_script,2013-10-02 08:14:00,
2013-10-02 04:19:00,48.8,-99.9,0.00,SE,142,0.0,1.0,-99,0.00,NA,NA,-99.99,WeatherLink_script,2013-10-02 08:19:00,
2013-10-02 04:24:00,48.8,-99.9,0.00,NNE,14,0.0,0.0,-99,0.00,NA,NA,-99.99,WeatherLink_script,2013-10-02 08:24:00,
2013-10-02 04:29:00,48.7,-99.9,0.00,East,101,0.0,0.0,-99,0.00,NA,NA,-99.99,WeatherLink_script,2013-10-02 08:29:00,
2013-10-02 04:34:00,48.6,-99.9,0.00,South,181,0.0,0.0,-99,0.00,NA,NA,-99.99,WeatherLink_script,2013-10-02 08:34:00,
2013-10-02 04:39:00,48.5,-99.9,0.00,North,11,0.0,0.0,-99,0.00,NA,NA,-99.99,WeatherLink_script,2013-10-02 08:39:00,
2013-10-02 04:44:00,48.3,-99.9,0.00,NNE,12,0.1,0.0,-99,0.00,NA,NA,-99.99,WeatherLink_script,2013-10-02 08:44:00,
2013-10-02 04:49:00,48.2,-99.9,0.00,SW,230,0.0,0.0,-99,0.00,NA,NA,-99.99,WeatherLink_script,2013-10-02 08:49:00,
2013-10-02 04:54:00,48.2,-99.9,0.00,NNE,18,0.0,0.0,-99,0.00,NA,NA,-99.99,WeatherLink_script,2013-10-02 08:54:00,
2013-10-02 04:59:00,48.2,-99.9,0.00,NNW,339,0.0,0.0,-99,0.00,NA,NA,-99.99,WeatherLink_script,2013-10-02 08:59:00,
2013-10-02 05:04:00,48.3,-99.9,0.00,SSW,202,0.0,0.0,-99,0.00,NA,NA,-99.99,WeatherLink_script,2013-10-02 09:04:00,
2013-10-02 05:09:00,48.2,-99.9,0.00,SSW,192,0.0,0.0,-99,0.00,NA,NA,-99.99,WeatherLink_script,2013-10-02 09:09:00,
2013-10-02 05:14:00,48.0,-99.9,0.00,SW,231,0.0,0.0,-99,0.00,NA,NA,-99.99,WeatherLink_script,2013-10-02 09:14:00,
2013-10-02 05:19:00,47.9,-99.9,0.00,SW,224,0.0,0.0,-99,0.00,NA,NA,-99.99,WeatherLink_script,2013-10-02 09:19:00,
2013-10-02 05:24:00,47.9,-99.9,0.00,SSW,200,0.0,0.0,-99,0.00,NA,NA,-99.99,WeatherLink_script,2013-10-02 09:24:00,
2013-10-02 05:29:00,47.8,-99.9,0.00,North,10,0.0,0.0,-99,0.00,NA,NA,-99.99,WeatherLink_script,2013-10-02 09:29:00,
2013-10-02 05:34:00,47.9,-99.9,0.00,South,171,0.0,0.0,-99,0.00,NA,NA,-99.99,WeatherLink_script,2013-10-02 09:34:00,
2013-10-02 05:39:00,47.8,-99.9,0.00,SSE,163,0.0,0.0,-99,0.00,NA,NA,-99.99,WeatherLink_script,2013-10-02 09:39:00,
2013-10-02 05:44:00,47.7,-99.9,0.00,South,169,0.0,0.0,-99,0.00,NA,NA,-99.99,WeatherLink_script,2013-10-02 09:44:00,
2013-10-02 05:49:00,47.4,-99.9,0.00,WNW,293,0.0,0.0,-99,0.00,NA,NA,-99.99,WeatherLink_script,2013-10-02 09:49:00,
2013-10-02 05:54:00,47.5,-99.9,0.00,ESE,112,0.0,0.0,-99,0.00,NA,NA,-99.99,WeatherLink_script,2013-10-02 09:54:00,
2013-10-02 05:59:00,47.6,-99.9,0.00,SE,144,0.0,0.0,-99,0.00,NA,NA,-99.99,WeatherLink_script,2013-10-02 09:59:00,
2013-10-02 06:04:00,47.9,-99.9,0.00,SE,141,0.0,0.0,-99,0.00,NA,NA,-99.99,WeatherLink_script,2013-10-02 10:04:00,
2013-10-02 06:09:00,48.2,-99.9,0.00,NNW,345,0.0,0.0,-99,0.00,NA,NA,-99.99,WeatherLink_script,2013-10-02 10:09:00,
2013-10-02 06:14:00,48.1,-99.9,0.00,North,8,0.0,0.0,-99,0.00,NA,NA,-99.99,WeatherLink_script,2013-10-02 10:14:00,
2013-10-02 06:19:00,47.8,-99.9,0.00,North,5,0.0,0.0,-99,0.00,NA,NA,-99.99,WeatherLink_script,2013-10-02 10:19:00,
2013-10-02 06:24:00,47.7,-99.9,0.00,South,170,0.0,0.0,-99,0.00,NA,NA,-99.99,WeatherLink_script,2013-10-02 10:24:00,
2013-10-02 06:29:00,47.5,-99.9,0.00,ESE,109,0.0,0.0,-99,0.00,NA,NA,-99.99,WeatherLink_script,2013-10-02 10:29:00,
2013-10-02 06:34:00,47.4,-99.9,0.00,SSW,198,0.0,0.0,-99,0.00,NA,NA,-99.99,WeatherLink_script,2013-10-02 10:34:00,
2013-10-02 06:39:00,47.4,-99.9,0.00,ENE,61,0.0,0.0,-99,0.00,NA,NA,-99.99,WeatherLink_script,2013-10-02 10:39:00,
2013-10-02 06:44:00,47.4,-99.9,0.00,North,9,0.1,0.0,-99,0.00,NA,NA,-99.99,WeatherLink_script,2013-10-02 10:44:00,
2013-10-02 06:49:00,47.4,-99.9,0.00,NNW,331,0.0,0.0,-99,0.00,NA,NA,-99.99,WeatherLink_script,2013-10-02 10:49:00,
2013-10-02 06:54:00,47.5,-99.9,0.00,ENE,61,0.0,0.0,-99,0.00,NA,NA,-99.99,WeatherLink_script,2013-10-02 10:54:00,
2013-10-02 06:59:00,47.4,-99.9,0.00,North,354,0.0,0.0,-99,0.00,NA,NA,-99.99,WeatherLink_script,2013-10-02 10:59:00,
2013-10-02 07:04:00,47.1,-99.9,0.00,ENE,58,0.0,0.0,-99,0.00,NA,NA,-99.99,WeatherLink_script,2013-10-02 11:04:00,
2013-10-02 07:09:00,47.1,-99.9,0.00,SSE,150,0.0,0.0,-99,0.00,NA,NA,-99.99,WeatherLink_script,2013-10-02 11:09:00,
2013-10-02 07:14:00,46.8,-99.9,0.00,ESE,110,0.0,0.0,-99,0.00,NA,NA,-99.99,WeatherLink_script,2013-10-02 11:14:00,
2013-10-02 07:19:00,46.9,-99.9,0.00,WSW,256,0.0,0.0,-99,0.00,NA,NA,-99.99,WeatherLink_script,2013-10-02 11:19:00,
2013-10-02 07:24:00,47.0,-99.9,0.00,SSE,151,0.0,0.0,-99,0.00,NA,NA,-99.99,WeatherLink_script,2013-10-02 11:24:00,
2013-10-02 07:29:00,47.1,-99.9,0.00,NW,304,0.0,0.0,-99,0.00,NA,NA,-99.99,WeatherLink_script,2013-10-02 11:29:00,
2013-10-02 07:34:00,47.2,-99.9,0.00,NE,48,0.0,0.0,-99,0.00,NA,NA,-99.99,WeatherLink_script,2013-10-02 11:34:00,
2013-10-02 07:39:00,47.3,-99.9,0.00,NNW,332,0.0,0.0,-99,0.00,NA,NA,-99.99,WeatherLink_script,2013-10-02 11:39:00,
2013-10-02 07:44:00,47.5,-99.9,0.00,NW,308,0.0,0.0,-99,0.00,NA,NA,-99.99,WeatherLink_script,2013-10-02 11:44:00,
2013-10-02 07:49:00,47.3,-99.9,0.00,SSE,153,0.0,0.0,-99,0.00,NA,NA,-99.99,WeatherLink_script,2013-10-02 11:49:00,
2013-10-02 07:54:00,47.4,-99.9,0.00,NW,322,0.0,0.0,-99,0.00,NA,NA,-99.99,WeatherLink_script,2013-10-02 11:54:00,
2013-10-02 07:59:00,47.7,-99.9,0.00,SSE,157,0.0,0.0,-99,0.00,NA,NA,-99.99,WeatherLink_script,2013-10-02 11:59:00,
2013-10-02 08:04:00,47.8,-99.9,0.00,SE,145,0.0,0.0,-99,0.00,NA,NA,-99.99,WeatherLink_script,2013-10-02 12:04:00,
2013-10-02 08:09:00,48.2,-99.9,0.00,South,190,0.0,0.0,-99,0.00,NA,NA,-99.99,WeatherLink_script,2013-10-02 12:09:00,
2013-10-02 08:14:00,48.6,-99.9,0.00,South,176,0.0,0.0,-99,0.00,NA,NA,-99.99,WeatherLink_script,2013-10-02 12:14:00,
2013-10-02 08:19:00,48.8,-99.9,0.00,East,85,0.0,0.0,-99,0.00,NA,NA,-99.99,WeatherLink_script,2013-10-02 12:19:00,
2013-10-02 08:24:00,48.9,-99.9,0.00,SE,138,0.0,0.0,-99,0.00,NA,NA,-99.99,WeatherLink_script,2013-10-02 12:24:00,
2013-10-02 08:29:00,49.0,-99.9,0.00,SSE,162,0.0,0.0,-99,0.00,NA,NA,-99.99,WeatherLink_script,2013-10-02 12:29:00,
2013-10-02 08:34:00,48.8,-99.9,0.00,South,178,0.0,0.0,-99,0.00,NA,NA,-99.99,WeatherLink_script,2013-10-02 12:34:00,
2013-10-02 08:39:00,48.9,-99.9,0.00,South,180,0.0,0.0,-99,0.00,NA,NA,-99.99,WeatherLink_script,2013-10-02 12:39:00,
2013-10-02 08:44:00,49.0,-99.9,0.00,SE,134,0.0,0.0,-99,0.00,NA,NA,-99.99,WeatherLink_script,2013-10-02 12:44:00,
2013-10-02 08:49:00,49.3,-99.9,0.00,SE,141,0.0,0.0,-99,0.00,NA,NA,-99.99,WeatherLink_script,2013-10-02 12:49:00,
2013-10-02 08:54:00,50.5,-99.9,0.00,SE,143,0.0,0.0,-99,0.00,NA,NA,-99.99,WeatherLink_script,2013-10-02 12:54:00,
2013-10-02 08:59:00,50.9,-99.9,0.00,South,180,0.0,0.0,-99,0.00,NA,NA,-99.99,WeatherLink_script,2013-10-02 12:59:00,
2013-10-02 09:04:00,51.3,-99.9,0.00,SSE,161,0.0,0.0,-99,0.00,NA,NA,-99.99,WeatherLink_script,2013-10-02 13:04:00,
2013-10-02 09:09:00,52.2,-99.9,0.00,SE,124,0.0,0.0,-99,0.00,NA,NA,-99.99,WeatherLink_script,2013-10-02 13:09:00,
2013-10-02 09:14:00,52.2,-99.9,0.00,SE,139,0.0,0.0,-99,0.00,NA,NA,-99.99,WeatherLink_script,2013-10-02 13:14:00,
2013-10-02 09:19:00,52.7,-99.9,0.00,SSE,150,0.0,0.0,-99,0.00,NA,NA,-99.99,WeatherLink_script,2013-10-02 13:19:00,
2013-10-02 09:24:00,54.0,-99.9,0.00,SSE,161,0.2,0.0,-99,0.00,NA,NA,-99.99,WeatherLink_script,2013-10-02 13:24:00,
2013-10-02 09:29:00,53.4,-99.9,0.00,SSE,168,0.0,0.0,-99,0.00,NA,NA,-99.99,WeatherLink_script,2013-10-02 13:29:00,
2013-10-02 09:34:00,54.7,-99.9,0.00,SE,141,0.0,0.0,-99,0.00,NA,NA,-99.99,WeatherLink_script,2013-10-02 13:34:00,
2013-10-02 09:39:00,56.1,-99.9,0.00,South,171,0.0,0.0,-99,0.00,NA,NA,-99.99,WeatherLink_script,2013-10-02 13:39:00,
2013-10-02 09:44:00,58.2,-99.9,0.00,SE,141,0.0,0.0,-99,0.00,NA,NA,-99.99,WeatherLink_script,2013-10-02 13:44:00,
2013-10-02 09:49:00,60.2,-99.9,0.00,SSE,162,0.0,0.0,-99,0.00,NA,NA,-99.99,WeatherLink_script,2013-10-02 13:49:00,
2013-10-02 09:54:00,61.7,-99.9,0.00,South,176,0.5,1.0,-99,0.00,NA,NA,-99.99,WeatherLink_script,2013-10-02 13:54:00,
2013-10-02 09:59:00,61.0,-99.9,0.00,South,180,0.1,1.0,-99,0.00,NA,NA,-99.99,WeatherLink_script,2013-10-02 13:59:00,
2013-10-02 10:04:00,63.5,-99.9,0.00,South,176,0.0,1.0,-99,0.00,NA,NA,-99.99,WeatherLink_script,2013-10-02 14:04:00,
2013-10-02 10:09:00,66.8,-99.9,0.00,SE,130,0.0,1.0,-99,0.00,NA,NA,-99.99,WeatherLink_script,2013-10-02 14:09:00,
2013-10-02 10:14:00,68.2,-99.9,0.00,South,189,0.1,0.0,-99,0.00,NA,NA,-99.99,WeatherLink_script,2013-10-02 14:14:00,
2013-10-02 10:19:00,68.1,-99.9,0.00,SSE,152,0.4,1.0,-99,0.00,NA,NA,-99.99,WeatherLink_script,2013-10-02 14:19:00,
2013-10-02 10:24:00,69.6,-99.9,0.00,SSE,154,0.1,1.0,-99,0.00,NA,NA,-99.99,WeatherLink_script,2013-10-02 14:24:00,
2013-10-02 10:29:00,71.5,-99.9,0.00,South,177,0.6,1.0,-99,0.00,NA,NA,-99.99,WeatherLink_script,2013-10-02 14:29:00,
2013-10-02 10:34:00,72.7,-99.9,0.00,SSE,163,0.0,1.0,-99,0.00,NA,NA,-99.99,WeatherLink_script,2013-10-02 14:34:00,
2013-10-02 10:39:00,74.1,-99.9,0.00,WSW,256,0.1,1.0,-99,0.00,NA,NA,-99.99,WeatherLink_script,2013-10-02 14:39:00,
2013-10-02 10:44:00,77.5,-99.9,0.00,North,3,0.5,1.0,-99,0.00,NA,NA,-99.99,WeatherLink_script,2013-10-02 14:44:00,
2013-10-02 10:50:00,74.1,-99.9,0.00,ENE,58,0.2,1.0,-99,0.00,NA,NA,-99.99,WeatherLink_script,2013-10-02 14:50:00,
2013-10-02 10:55:00,72.9,-99.9,0.00,ESE,120,0.1,1.0,-99,0.00,NA,NA,-99.99,WeatherLink_script,2013-10-02 14:55:00,
2013-10-02 11:00:00,71.4,-99.9,0.00,SSE,164,1.5,2.0,-99,0.00,NA,NA,-99.99,WeatherLink_script,2013-10-02 15:00:00,
2013-10-02 11:05:00,70.0,-99.9,0.00,NNE,22,1.7,4.0,-99,0.00,NA,NA,-99.99,WeatherLink_script,2013-10-02 15:05:00,
2013-10-02 11:10:00,70.2,-99.9,0.00,North,1,1.7,4.0,-99,0.00,NA,NA,-99.99,WeatherLink_script,2013-10-02 15:10:00,
2013-10-02 11:15:00,69.8,-99.9,0.00,North,7,2.1,4.0,-99,0.00,NA,NA,-99.99,WeatherLink_script,2013-10-02 15:15:00,
2013-10-02 11:20:00,69.0,-99.9,0.00,NE,45,0.7,4.0,-99,0.00,NA,NA,-99.99,WeatherLink_script,2013-10-02 15:20:00,
2013-10-02 11:25:00,69.0,-99.9,0.00,SE,130,2.3,4.0,-99,0.00,NA,NA,-99.99,WeatherLink_script,2013-10-02 15:25:00,
2013-10-02 11:30:00,69.3,-99.9,0.00,SSE,153,2.0,6.0,-99,0.00,NA,NA,-99.99,WeatherLink_script,2013-10-02 15:30:00,
2013-10-02 11:35:00,69.6,-99.9,0.00,SE,144,0.6,6.0,-99,0.00,NA,NA,-99.99,WeatherLink_script,2013-10-02 15:35:00,
2013-10-02 11:40:00,69.6,-99.9,0.00,South,173,1.0,6.0,-99,0.00,NA,NA,-99.99,WeatherLink_script,2013-10-02 15:40:00,
2013-10-02 11:45:00,69.9,-99.9,0.00,NE,34,1.4,4.0,-99,0.00,NA,NA,-99.99,WeatherLink_script,2013-10-02 15:45:00,
2013-10-02 11:50:00,72.1,-99.9,0.00,SE,136,2.3,6.0,-99,0.00,NA,NA,-99.99,WeatherLink_script,2013-10-02 15:50:00,
2013-10-02 11:55:00,72.7,-99.9,0.00,SSE,149,1.4,6.0,-99,0.00,NA,NA,-99.99,WeatherLink_script,2013-10-02 15:55:00,
2013-10-02 12:00:00,74.4,-99.9,0.00,SSE,156,2.3,6.0,-99,0.00,NA,NA,-99.99,WeatherLink_script,2013-10-02 16:00:00,
2013-10-02 12:05:00,75.8,-99.9,0.00,SE,135,2.1,5.0,-99,0.00,NA,NA,-99.99,WeatherLink_script,2013-10-02 16:05:00,
2013-10-02 12:10:00,74.9,-99.9,0.00,ESE,106,1.6,5.0,-99,0.00,NA,NA,-99.99,WeatherLink_script,2013-10-02 16:10:00,
2013-10-02 12:15:00,73.9,-99.9,0.00,SE,140,1.9,5.0,-99,0.00,NA,NA,-99.99,WeatherLink_script,2013-10-02 16:15:00,
2013-10-02 12:20:00,74.3,-99.9,0.00,East,92,2.1,5.0,-99,0.00,NA,NA,-99.99,WeatherLink_script,2013-10-02 16:20:00,
2013-10-02 12:25:00,74.7,-99.9,0.00,SE,139,0.3,1.0,-99,0.00,NA,NA,-99.99,WeatherLink_script,2013-10-02 16:25:00,
2013-10-02 12:30:00,75.7,-99.9,0.00,SSE,155,2.6,5.0,-99,0.00,NA,NA,-99.99,WeatherLink_script,2013-10-02 16:30:00,
2013-10-02 12:35:00,77.6,-99.9,0.00,East,92,1.7,5.0,-99,0.00,NA,NA,-99.99,WeatherLink_script,2013-10-02 16:35:00,
2013-10-02 12:40:00,78.2,-99.9,0.00,SE,144,2.3,5.0,-99,0.00,NA,NA,-99.99,WeatherLink_script,2013-10-02 16:40:00,
2013-10-02 12:45:00,79.6,-99.9,0.00,SSE,148,2.9,5.0,-99,0.00,NA,NA,-99.99,WeatherLink_script,2013-10-02 16:45:00,
2013-10-02 12:50:00,80.2,-99.9,0.00,SE,124,2.0,5.0,-99,0.00,NA,NA,-99.99,WeatherLink_script,2013-10-02 16:50:00,
2013-10-02 12:55:00,76.8,-99.9,0.00,SE,140,1.7,5.0,-99,0.00,NA,NA,-99.99,WeatherLink_script,2013-10-02 16:55:00,
2013-10-02 13:00:00,78.1,-99.9,0.00,ENE,59,1.6,6.0,-99,0.00,NA,NA,-99.99,WeatherLink_script,2013-10-02 17:00:00,
2013-10-02 13:05:00,78.6,-99.9,0.00,SE,139,1.4,6.0,-99,0.00,NA,NA,-99.99,WeatherLink_script,2013-10-02 17:05:00,
2013-10-02 13:10:00,76.6,-99.9,0.00,SE,143,2.2,6.0,-99,0.00,NA,NA,-99.99,WeatherLink_script,2013-10-02 17:10:00,
2013-10-02 13:15:00,76.5,-99.9,0.00,ENE,61,1.8,4.0,-99,0.00,NA,NA,-99.99,WeatherLink_script,2013-10-02 17:15:00,
2013-10-02 13:20:00,79.1,-99.9,0.00,ESE,102,1.7,4.0,-99,0.00,NA,NA,-99.99,WeatherLink_script,2013-10-02 17:20:00,
2013-10-02 13:25:00,79.9,-99.9,0.00,SE,136,2.5,5.0,-99,0.00,NA,NA,-99.99,WeatherLink_script,2013-10-02 17:25:00,
2013-10-02 13:30:00,77.6,-99.9,0.00,SSE,154,4.2,5.0,-99,0.00,NA,NA,-99.99,WeatherLink_script,2013-10-02 17:30:00,
2013-10-02 13:35:00,77.8,-99.9,0.00,SSE,162,0.8,6.0,-99,0.00,NA,NA,-99.99,WeatherLink_script,2013-10-02 17:35:00,
2013-10-02 13:40:00,80.1,-99.9,0.00,SE,137,1.2,6.0,-99,0.00,NA,NA,-99.99,WeatherLink_script,2013-10-02 17:40:00,
2013-10-02 13:45:00,77.6,-99.9,0.00,ESE,109,3.0,8.0,-99,0.00,NA,NA,-99.99,WeatherLink_script,2013-10-02 17:45:00,
2013-10-02 13:50:00,78.8,-99.9,0.00,ENE,63,1.5,8.0,-99,0.00,NA,NA,-99.99,WeatherLink_script,2013-10-02 17:50:00,
2013-10-02 13:55:00,80.1,-99.9,0.00,SSE,148,3.1,8.0,-99,0.00,NA,NA,-99.99,WeatherLink_script,2013-10-02 17:55:00,
2013-10-02 14:00:00,80.2,-99.9,0.00,SSE,158,2.8,3.0,-99,0.00,NA,NA,-99.99,WeatherLink_script,2013-10-02 18:00:00,
2013-10-02 14:05:00,82.7,-99.9,0.00,North,3,0.4,3.0,-99,0.00,NA,NA,-99.99,WeatherLink_script,2013-10-02 18:05:00,
2013-10-02 14:10:00,82.3,-99.9,0.00,ENE,61,1.7,4.0,-99,0.00,NA,NA,-99.99,WeatherLink_script,2013-10-02 18:10:00,
2013-10-02 14:15:00,80.0,-99.9,0.00,NNE,15,2.7,4.0,-99,0.00,NA,NA,-99.99,WeatherLink_script,2013-10-02 18:15:00,
2013-10-02 14:20:00,80.0,-99.9,0.00,SSE,157,1.6,4.0,-99,0.00,NA,NA,-99.99,WeatherLink_script,2013-10-02 18:20:00,
2013-10-02 14:25:00,78.5,-99.9,0.00,NNE,33,2.5,5.0,-99,0.00,NA,NA,-99.99,WeatherLink_script,2013-10-02 18:25:00,
2013-10-02 14:30:00,81.5,-99.9,0.00,SE,139,0.7,5.0,-99,0.00,NA,NA,-99.99,WeatherLink_script,2013-10-02 18:30:00,
2013-10-02 14:35:00,82.6,-99.9,0.00,SSE,153,2.2,5.0,-99,0.00,NA,NA,-99.99,WeatherLink_script,2013-10-02 18:35:00,
2013-10-02 14:40:00,80.9,-99.9,0.00,SE,146,1.8,3.0,-99,0.00,NA,NA,-99.99,WeatherLink_script,2013-10-02 18:40:00,
2013-10-02 14:45:00,80.2,-99.9,0.00,NNE,12,1.9,7.0,-99,0.00,NA,NA,-99.99,WeatherLink_script,2013-10-02 18:45:00,
2013-10-02 14:50:00,77.7,-99.9,0.00,ESE,121,1.5,7.0,-99,0.00,NA,NA,-99.99,WeatherLink_script,2013-10-02 18:50:00,
2013-10-02 14:55:00,77.6,-99.9,0.00,East,86,2.2,7.0,-99,0.00,NA,NA,-99.99,WeatherLink_script,2013-10-02 18:55:00,
2013-10-02 15:00:00,77.5,-99.9,0.00,SSE,151,2.9,6.0,-99,0.00,NA,NA,-99.99,WeatherLink_script,2013-10-02 19:00:00,
2013-10-02 15:05:00,78.5,-99.9,0.00,SE,136,1.7,6.0,-99,0.00,NA,NA,-99.99,WeatherLink_script,2013-10-02 19:05:00,
2013-10-02 15:10:00,78.6,-99.9,0.00,SE,144,2.8,6.0,-99,0.00,NA,NA,-99.99,WeatherLink_script,2013-10-02 19:10:00,
2013-10-02 15:15:00,78.8,-99.9,0.00,SE,134,1.4,6.0,-99,0.00,NA,NA,-99.99,WeatherLink_script,2013-10-02 19:15:00,
2013-10-02 15:20:00,76.2,-99.9,0.00,NE,44,3.0,6.0,-99,0.00,NA,NA,-99.99,WeatherLink_script,2013-10-02 19:20:00,
2013-10-02 15:25:00,74.3,-99.9,0.00,East,101,0.4,6.0,-99,0.00,NA,NA,-99.99,WeatherLink_script,2013-10-02 19:25:00,
2013-10-02 15:30:00,78.1,-99.9,0.00,SE,142,0.9,1.0,-99,0.00,NA,NA,-99.99,WeatherLink_script,2013-10-02 19:30:00,
2013-10-02 15:35:00,76.2,-99.9,0.00,SSE,150,1.6,5.0,-99,0.00,NA,NA,-99.99,WeatherLink_script,2013-10-02 19:35:00,
2013-10-02 15:40:00,73.6,-99.9,0.00,NW,307,0.5,5.0,-99,0.00,NA,NA,-99.99,WeatherLink_script,2013-10-02 19:40:00,
2013-10-02 15:45:00,74.3,-99.9,0.00,ENE,57,0.7,5.0,-99,0.00,NA,NA,-99.99,WeatherLink_script,2013-10-02 19:45:00,
2013-10-02 15:50:00,75.5,-99.9,0.00,North,356,1.4,2.0,-99,0.00,NA,NA,-99.99,WeatherLink_script,2013-10-02 19:50:00,
2013-10-02 15:55:00,75.3,-99.9,0.00,North,5,1.9,2.0,-99,0.00,NA,NA,-99.99,WeatherLink_script,2013-10-02 19:55:00,
2013-10-02 16:00:00,75.3,-99.9,0.00,NNW,332,0.8,2.0,-99,0.00,NA,NA,-99.99,WeatherLink_script,2013-10-02 20:00:00,
2013-10-02 16:05:00,79.7,-99.9,0.00,North,8,3.0,4.0,-99,0.00,NA,NA,-99.99,WeatherLink_script,2013-10-02 20:05:00,
2013-10-02 16:10:00,80.8,-99.9,0.00,SSW,198,0.4,4.0,-99,0.00,NA,NA,-99.99,WeatherLink_script,2013-10-02 20:10:00,
2013-10-02 16:15:00,81.5,-99.9,0.00,SSE,165,1.1,4.0,-99,0.00,NA,NA,-99.99,WeatherLink_script,2013-10-02 20:15:00,
2013-10-02 16:20:00,78.2,-99.9,0.00,NE,56,1.1,4.0,-99,0.00,NA,NA,-99.99,WeatherLink_script,2013-10-02 20:20:00,
2013-10-02 16:25:00,78.8,-99.9,0.00,NNE,20,0.4,2.0,-99,0.00,NA,NA,-99.99,WeatherLink_script,2013-10-02 20:25:00,
2013-10-02 16:30:00,79.2,-99.9,0.00,East,89,2.0,4.0,-99,0.00,NA,NA,-99.99,WeatherLink_script,2013-10-02 20:30:00,
2013-10-02 16:35:00,79.3,-99.9,0.00,North,5,3.0,4.0,-99,0.00,NA,NA,-99.99,WeatherLink_script,2013-10-02 20:35:00,
2013-10-02 16:40:00,76.6,-99.9,0.00,North,6,2.6,4.0,-99,0.00,NA,NA,-99.99,WeatherLink_script,2013-10-02 20:40:00,
2013-10-02 16:45:00,77.5,-99.9,0.00,SSE,158,1.0,8.0,-99,0.00,NA,NA,-99.99,WeatherLink_script,2013-10-02 20:45:00,
2013-10-02 16:50:00,79.4,-99.9,0.00,ESE,123,0.7,8.0,-99,0.00,NA,NA,-99.99,WeatherLink_script,2013-10-02 20:50:00,
2013-10-02 16:55:00,77.1,-99.9,0.00,NNE,22,3.5,8.0,-99,0.00,NA,NA,-99.99,WeatherLink_script,2013-10-02 20:55:00,
2013-10-02 17:00:00,76.5,-99.9,0.00,ESE,109,0.2,4.0,-99,0.00,NA,NA,-99.99,WeatherLink_script,2013-10-02 21:00:00,
2013-10-02 17:05:00,76.2,-99.9,0.00,NE,40,1.8,4.0,-99,0.00,NA,NA,-99.99,WeatherLink_script,2013-10-02 21:05:00,
2013-10-02 17:10:00,76.0,-99.9,0.00,ENE,63,1.4,4.0,-99,0.00,NA,NA,-99.99,WeatherLink_script,2013-10-02 21:10:00,
2013-10-02 17:15:00,75.4,-99.9,0.00,North,11,2.5,3.0,-99,0.00,NA,NA,-99.99,WeatherLink_script,2013-10-02 21:15:00,
2013-10-02 17:20:00,74.3,-99.9,0.00,ESE,114,1.2,5.0,-99,0.00,NA,NA,-99.99,WeatherLink_script,2013-10-02 21:20:00,
2013-10-02 17:25:00,74.3,-99.9,0.00,East,84,1.3,5.0,-99,0.00,NA,NA,-99.99,WeatherLink_script,2013-10-02 21:25:00,
2013-10-02 17:30:00,74.5,-99.9,0.00,ENE,73,3.1,5.0,-99,0.00,NA,NA,-99.99,WeatherLink_script,2013-10-02 21:30:00,
2013-10-02 17:35:00,74.1,-99.9,0.00,North,5,0.0,5.0,-99,0.00,NA,NA,-99.99,WeatherLink_script,2013-10-02 21:35:00,
2013-10-02 17:40:00,73.3,-99.9,0.00,NNW,345,1.1,5.0,-99,0.00,NA,NA,-99.99,WeatherLink_script,2013-10-02 21:40:00,
2013-10-02 17:45:00,72.6,-99.9,0.00,NNE,18,0.6,5.0,-99,0.00,NA,NA,-99.99,WeatherLink_script,2013-10-02 21:45:00,
2013-10-02 17:50:00,72.0,-99.9,0.00,East,90,0.0,0.0,-99,0.00,NA,NA,-99.99,WeatherLink_script,2013-10-02 21:50:00,
2013-10-02 17:55:00,71.3,-99.9,0.00,NE,36,0.0,1.0,-99,0.00,NA,NA,-99.99,WeatherLink_script,2013-10-02 21:55:00,
2013-10-02 18:00:00,70.6,-99.9,0.00,North,6,0.8,2.0,-99,0.00,NA,NA,-99.99,WeatherLink_script,2013-10-02 22:00:00,
2013-10-02 18:05:00,69.8,-99.9,0.00,North,356,0.3,2.0,-99,0.00,NA,NA,-99.99,WeatherLink_script,2013-10-02 22:05:00,
2013-10-02 18:10:00,67.9,-99.9,0.00,North,3,0.6,2.0,-99,0.00,NA,NA,-99.99,WeatherLink_script,2013-10-02 22:10:00,
2013-10-02 18:15:00,66.4,-99.9,0.00,NW,323,0.1,0.0,-99,0.00,NA,NA,-99.99,WeatherLink_script,2013-10-02 22:15:00,
2013-10-02 18:20:00,66.0,-99.9,0.00,NW,317,0.1,0.0,-99,0.00,NA,NA,-99.99,WeatherLink_script,2013-10-02 22:20:00,
2013-10-02 18:25:00,65.2,-99.9,0.00,ESE,121,0.0,0.0,-99,0.00,NA,NA,-99.99,WeatherLink_script,2013-10-02 22:25:00,
2013-10-02 18:30:00,64.6,-99.9,0.00,WNW,292,0.0,0.0,-99,0.00,NA,NA,-99.99,WeatherLink_script,2013-10-02 22:30:00,
2013-10-02 18:35:00,64.1,-99.9,0.00,West,270,0.0,0.0,-99,0.00,NA,NA,-99.99,WeatherLink_script,2013-10-02 22:35:00,
2013-10-02 18:40:00,63.8,-99.9,0.00,South,188,0.0,0.0,-99,0.00,NA,NA,-99.99,WeatherLink_script,2013-10-02 22:40:00,
2013-10-02 18:45:00,63.6,-99.9,0.00,South,181,0.0,0.0,-99,0.00,NA,NA,-99.99,WeatherLink_script,2013-10-02 22:45:00,
2013-10-02 18:50:00,63.0,-99.9,0.00,NNW,343,0.0,0.0,-99,0.00,NA,NA,-99.99,WeatherLink_script,2013-10-02 22:50:00,
2013-10-02 18:55:00,62.5,-99.9,0.00,North,359,0.0,0.0,-99,0.00,NA,NA,-99.99,WeatherLink_script,2013-10-02 22:55:00,
2013-10-02 19:00:00,61.8,-99.9,0.00,East,83,0.0,0.0,-99,0.00,NA,NA,-99.99,WeatherLink_script,2013-10-02 23:00:00,
2013-10-02 19:05:00,61.3,-99.9,0.00,North,350,0.0,0.0,-99,0.00,NA,NA,-99.99,WeatherLink_script,2013-10-02 23:05:00,
2013-10-02 19:10:00,60.8,-99.9,0.00,NNE,12,0.1,0.0,-99,0.00,NA,NA,-99.99,WeatherLink_script,2013-10-02 23:10:00,
2013-10-02 19:15:00,60.4,-99.9,0.00,South,186,0.1,0.0,-99,0.00,NA,NA,-99.99,WeatherLink_script,2013-10-02 23:15:00,
2013-10-02 19:20:00,59.7,-99.9,0.00,NNW,335,0.0,0.0,-99,0.00,NA,NA,-99.99,WeatherLink_script,2013-10-02 23:20:00,
2013-10-02 19:25:00,59.5,-99.9,0.00,WSW,247,0.0,0.0,-99,0.00,NA,NA,-99.99,WeatherLink_script,2013-10-02 23:25:00,
2013-10-02 19:30:00,59.2,-99.9,0.00,North,2,0.1,0.0,-99,0.00,NA,NA,-99.99,WeatherLink_script,2013-10-02 23:30:00,
2013-10-02 19:35:00,59.0,-99.9,0.00,SSW,193,0.0,0.0,-99,0.00,NA,NA,-99.99,WeatherLink_script,2013-10-02 23:35:00,
2013-10-02 19:40:00,58.5,-99.9,0.00,North,0,1.2,1.2,-99,0.00,NA,NA,-99.99,WeatherLink_script,2013-10-02 23:40:00,
2013-10-02 19:45:00,56.7,-99.9,0.00,North,355,0.9,3.0,-99,0.00,NA,NA,-99.99,WeatherLink_script,2013-10-02 23:45:00,
2013-10-02 19:50:00,55.1,-99.9,0.00,North,10,2.5,3.0,-99,0.00,NA,NA,-99.99,WeatherLink_script,2013-10-02 23:50:00,
2013-10-02 19:55:00,56.3,-99.9,0.00,North,6,2.6,4.0,-99,0.00,NA,NA,-99.99,WeatherLink_script,2013-10-02 23:55:00,
2013-10-02 20:00:00,56.8,-99.9,0.00,North,8,2.6,4.0,-99,0.00,NA,NA,-99.99,WeatherLink_script,2013-10-03 00:00:00,
2013-10-02 20:05:00,56.6,-99.9,0.00,North,4,0.8,4.0,-99,0.00,NA,NA,-99.99,WeatherLink_script,2013-10-03 00:05:00,
2013-10-02 20:10:00,56.4,-99.9,0.00,East,91,0.2,2.0,-99,0.00,NA,NA,-99.99,WeatherLink_script,2013-10-03 00:10:00,
2013-10-02 20:15:00,55.9,-99.9,0.00,NE,53,0.0,2.0,-99,0.00,NA,NA,-99.99,WeatherLink_script,2013-10-03 00:15:00,
2013-10-02 20:20:00,55.7,-99.9,0.00,SSW,197,0.0,2.0,-99,0.00,NA,NA,-99.99,WeatherLink_script,2013-10-03 00:20:00,
2013-10-02 20:25:00,55.4,-99.9,0.00,NNW,347,0.3,1.0,-99,0.00,NA,NA,-99.99,WeatherLink_script,2013-10-03 00:25:00,
2013-10-02 20:30:00,54.9,-99.9,0.00,NNE,17,0.4,1.0,-99,0.00,NA,NA,-99.99,WeatherLink_script,2013-10-03 00:30:00,
2013-10-02 20:35:00,56.8,-99.9,0.00,NE,35,1.2,2.0,-99,0.00,NA,NA,-99.99,WeatherLink_script,2013-10-03 00:35:00,
2013-10-02 20:40:00,58.3,-99.9,0.00,North,356,0.6,4.0,-99,0.00,NA,NA,-99.99,WeatherLink_script,2013-10-03 00:40:00,
2013-10-02 20:45:00,63.5,-99.9,0.00,NNE,22,2.9,5.0,-99,0.00,NA,NA,-99.99,WeatherLink_script,2013-10-03 00:45:00,
2013-10-02 20:50:00,66.4,-99.9,0.00,NE,44,2.0,5.0,-99,0.00,NA,NA,-99.99,WeatherLink_script,2013-10-03 00:50:00,
2013-10-02 20:55:00,65.4,-99.9,0.00,North,3,1.5,5.0,-99,0.00,NA,NA,-99.99,WeatherLink_script,2013-10-03 00:55:00,
2013-10-02 21:00:00,65.8,-99.9,0.00,North,357,1.1,5.0,-99,0.00,NA,NA,-99.99,WeatherLink_script,2013-10-03 01:00:00,
2013-10-02 21:05:00,60.9,-99.9,0.00,North,4,1.1,2.0,-99,0.00,NA,NA,-99.99,WeatherLink_script,2013-10-03 01:05:00,
2013-10-02 21:10:00,58.5,-99.9,0.00,North,357,0.1,2.0,-99,0.00,NA,NA,-99.99,WeatherLink_script,2013-10-03 01:10:00,
2013-10-02 21:15:00,58.8,-99.9,0.00,SSE,153,0.1,2.0,-99,0.00,NA,NA,-99.99,WeatherLink_script,2013-10-03 01:15:00,
2013-10-02 21:20:00,58.1,-99.9,0.00,South,186,0.0,0.0,-99,0.00,NA,NA,-99.99,WeatherLink_script,2013-10-03 01:20:00,
2013-10-02 21:25:00,57.3,-99.9,0.00,South,176,0.2,1.0,-99,0.00,NA,NA,-99.99,WeatherLink_script,2013-10-03 01:25:00,
2013-10-02 21:30:00,56.6,-99.9,0.00,SSE,160,0.1,1.0,-99,0.00,NA,NA,-99.99,WeatherLink_script,2013-10-03 01:30:00,
2013-10-02 21:35:00,56.0,-99.9,0.00,ESE,123,0.5,2.0,-99,0.00,NA,NA,-99.99,WeatherLink_script,2013-10-03 01:35:00,
2013-10-02 21:40:00,56.7,-99.9,0.00,SSE,147,0.5,3.0,-99,0.00,NA,NA,-99.99,WeatherLink_script,2013-10-03 01:40:00,
2013-10-02 21:45:00,56.5,-99.9,0.00,SSE,162,0.1,3.0,-99,0.00,NA,NA,-99.99,WeatherLink_script,2013-10-03 01:45:00,
2013-10-02 21:50:00,56.8,-99.9,0.00,ENE,74,0.4,5.0,-99,0.00,NA,NA,-99.99,WeatherLink_script,2013-10-03 01:50:00,
2013-10-02 21:55:00,56.9,-99.9,0.00,SSE,163,0.5,5.0,-99,0.00,NA,NA,-99.99,WeatherLink_script,2013-10-03 01:55:00,
2013-10-02 22:00:00,55.4,-99.9,0.00,WSW,256,0.0,5.0,-99,0.00,NA,NA,-99.99,WeatherLink_script,2013-10-03 02:00:00,
2013-10-02 22:05:00,55.5,-99.9,0.00,SSW,194,0.0,1.0,-99,0.00,NA,NA,-99.99,WeatherLink_script,2013-10-03 02:05:00,
2013-10-02 22:10:00,54.9,-99.9,0.00,South,190,0.1,2.0,-99,0.00,NA,NA,-99.99,WeatherLink_script,2013-10-03 02:10:00,
2013-10-02 22:15:00,55.0,-99.9,0.00,East,92,0.0,2.0,-99,0.00,NA,NA,-99.99,WeatherLink_script,2013-10-03 02:15:00,
2013-10-02 22:20:00,54.4,-99.9,0.00,South,177,0.5,2.0,-99,0.00,NA,NA,-99.99,WeatherLink_script,2013-10-03 02:20:00,
2013-10-02 22:25:00,54.5,-99.9,0.00,SSE,163,0.1,2.0,-99,0.00,NA,NA,-99.99,WeatherLink_script,2013-10-03 02:25:00,
2013-10-02 22:30:00,53.5,-99.9,0.00,SSE,165,0.0,0.0,-99,0.00,NA,NA,-99.99,WeatherLink_script,2013-10-03 02:30:00,
2013-10-02 22:35:00,53.4,-99.9,0.00,SSE,151,0.2,1.0,-99,0.00,NA,NA,-99.99,WeatherLink_script,2013-10-03 02:35:00,
2013-10-02 22:40:00,54.3,-99.9,0.00,North,3,0.5,1.0,-99,0.00,NA,NA,-99.99,WeatherLink_script,2013-10-03 02:40:00,
2013-10-02 22:45:00,54.4,-99.9,0.00,NNE,14,0.4,1.0,-99,0.00,NA,NA,-99.99,WeatherLink_script,2013-10-03 02:45:00,
2013-10-02 22:50:00,54.4,-99.9,0.00,NNW,341,0.8,2.0,-99,0.00,NA,NA,-99.99,WeatherLink_script,2013-10-03 02:50:00,
2013-10-02 22:55:00,53.9,-99.9,0.00,ESE,111,0.0,2.0,-99,0.00,NA,NA,-99.99,WeatherLink_script,2013-10-03 02:55:00,
2013-10-02 23:00:00,54.2,-99.9,0.00,NW,318,0.2,2.0,-99,0.00,NA,NA,-99.99,WeatherLink_script,2013-10-03 03:00:00,
2013-10-02 23:05:00,54.0,-99.9,0.00,SSE,160,0.0,2.0,-99,0.00,NA,NA,-99.99,WeatherLink_script,2013-10-03 03:05:00,
2013-10-02 23:10:00,53.1,-99.9,0.00,North,3,0.2,1.0,-99,0.00,NA,NA,-99.99,WeatherLink_script,2013-10-03 03:10:00,
2013-10-02 23:15:00,53.1,-99.9,0.00,North,356,0.0,1.0,-99,0.00,NA,NA,-99.99,WeatherLink_script,2013-10-03 03:15:00,
2013-10-02 23:20:00,52.9,-99.9,0.00,SE,128,0.1,1.0,-99,0.00,NA,NA,-99.99,WeatherLink_script,2013-10-03 03:20:00,
2013-10-02 23:25:00,52.4,-99.9,0.00,WNW,286,0.0,0.0,-99,0.00,NA,NA,-99.99,WeatherLink_script,2013-10-03 03:25:00,
2013-10-02 23:30:00,52.1,-99.9,0.00,ENE,62,0.0,0.0,-99,0.00,NA,NA,-99.99,WeatherLink_script,2013-10-03 03:30:00,
2013-10-02 23:35:00,51.7,-99.9,0.00,SSE,150,0.0,0.0,-99,0.00,NA,NA,-99.99,WeatherLink_script,2013-10-03 03:35:00,
2013-10-02 23:40:00,51.3,-99.9,0.00,East,83,0.0,0.0,-99,0.00,NA,NA,-99.99,WeatherLink_script,2013-10-03 03:40:00,
2013-10-02 23:45:00,51.4,-99.9,0.00,NNE,19,0.2,0.0,-99,0.00,NA,NA,-99.99,WeatherLink_script,2013-10-03 03:45:00,
2013-10-02 23:50:00,50.6,-99.9,0.00,SSE,150,0.1,1.0,-99,0.00,NA,NA,-99.99,WeatherLink_script,2013-10-03 03:50:00,
2013-10-02 23:55:00,50.1,-99.9,0.00,NNW,332,0.2,1.0,-99,0.00,NA,NA,-99.99,WeatherLink_script,2013-10-03 03:55:00,